Grand Marais, MN

4:39 PM CST on December 06, 2016 (GMT -0600)
Grand Marais

Weather History for KGNA - January, 2013

Change the Weather History Date:

Monday, January 7, 2013

  Actual Average (KCKC) Record (KCKC)
Temperature  
Mean Temperature 35 °F -  
Max Temperature 42 °F 14 °F 44 °F (2003)
Min Temperature 28 °F 1 °F -23 °F (2014)
Degree Days  
Heating Degree Days 30    
Moisture  
Dew Point 24 °F    
Average Humidity 68    
Maximum Humidity 76    
Minimum Humidity 57    
Precipitation  
Precipitation 0.00 in - - ()
Sea Level Pressure  
Sea Level Pressure 29.77 in    
Wind  
Wind Speed 16 mph (WSW)    
Max Wind Speed 26 mph    
Max Gust Speed 36 mph    
Averages and records for this station are not official NWS values.
T = Trace of Precipitation, MM = Missing Value Source: NWS Daily Summary

Daily Weather History Graph

Daily Weather History Graph

Search for Another Location

Airport or City:

Trip Planner

Search our weather history database for the weather conditions in past years. The results will help you decide how hot, cold, wet, or windy it might be!

Date:

Astronomy

Jan. 07, 2013 Rise Set
Actual Time 7:49 AM CST 4:26 PM CST
Civil Twilight 7:13 AM CST 5:02 PM CST
Nautical Twilight 6:34 AM CST 5:41 PM CST
Astronomical Twilight 5:57 AM CST 6:18 PM CST
Moon 3:08 AM CST (1/7) 12:41 PM CST (1/7)
Length of Visible Light 9h 48m
Length of Day
8h 37m
Waning Crescent, 22% of the Moon is Illuminated
Jan 7
Waning Crescent
Jan 11
New
Jan 18
First Quarter
Jan 26
Full
Feb 3
Last Quarter

Hourly Weather History & Observations

Time (CST) Temp. Windchill Dew Point Humidity Pressure Visibility Wind Dir Wind Speed Gust Speed Precip Events Conditions
12:56 AM 30.0 °F 19.1 °F 19.9 °F 66% 29.99 in - SW 15.0 mph - N/A   Unknown
1:56 AM 30.0 °F 17.2 °F 19.0 °F 64% 29.96 in - SSW 20.7 mph - N/A   Unknown
2:56 AM 28.9 °F 17.3 °F 19.0 °F 67% 29.92 in - SW 16.1 mph - N/A   Unknown
3:56 AM 28.9 °F 19.2 °F 19.0 °F 67% 29.86 in - SSW 11.5 mph - N/A   Unknown
4:56 AM 30.0 °F 17.2 °F 21.9 °F 72% 29.81 in - SW 20.7 mph - N/A   Unknown
5:56 AM 32.0 °F 19.2 °F 24.1 °F 73% 29.76 in - SW 23.0 mph 29.9 mph N/A   Unknown
6:56 AM 30.0 °F 16.3 °F 21.9 °F 72% 29.75 in - WSW 24.2 mph 35.7 mph N/A   Unknown
7:56 AM 28.9 °F 17.7 °F 21.0 °F 72% 29.72 in - West 15.0 mph 23.0 mph N/A   Unknown
8:56 AM 28.9 °F 18.2 °F 21.0 °F 72% 29.72 in - West 13.8 mph 21.9 mph N/A   Unknown
9:56 AM 30.0 °F 21.7 °F 21.9 °F 72% 29.71 in - West 9.2 mph 18.4 mph N/A   Unknown
10:56 AM 34.0 °F 23.8 °F 26.1 °F 73% 29.70 in - WSW 16.1 mph 27.6 mph N/A   Unknown
11:56 AM 35.1 °F 23.8 °F 28.0 °F 76% 29.67 in - WSW 20.7 mph 25.3 mph N/A   Unknown
12:56 PM 37.0 °F 26.2 °F 30.0 °F 76% 29.64 in - SW 21.9 mph 28.8 mph N/A   Unknown
1:56 PM 37.9 °F 26.3 °F 30.9 °F 76% 29.63 in - SW 26.5 mph 34.5 mph N/A   Unknown
2:56 PM 42.1 °F 34.5 °F 28.0 °F 58% 29.64 in - WSW 15.0 mph 26.5 mph N/A   Unknown
3:56 PM 39.0 °F 32.8 °F 25.0 °F 57% 29.67 in - West 9.2 mph 20.7 mph N/A   Unknown
4:56 PM 36.0 °F 30.3 °F 27.0 °F 70% 29.69 in - WSW 6.9 mph - N/A   Unknown
5:56 PM 37.0 °F 29.8 °F 26.1 °F 65% 29.72 in - West 10.4 mph 18.4 mph N/A   Unknown
6:56 PM 36.0 °F 27.5 °F 24.1 °F 62% 29.75 in - West 12.7 mph 31.1 mph N/A   Unknown
7:56 PM 36.0 °F 28.5 °F 24.1 °F 62% 29.77 in - WSW 10.4 mph 20.7 mph N/A   Unknown
8:56 PM 35.1 °F 26.9 °F 24.1 °F 64% 29.79 in - WSW 11.5 mph 19.6 mph N/A   Unknown
9:56 PM 35.1 °F 27.9 °F 24.1 °F 64% 29.82 in - West 9.2 mph - N/A   Unknown
10:56 PM 34.0 °F 28.0 °F 24.1 °F 67% 29.84 in - West 6.9 mph - N/A   Unknown
11:56 PM 35.1 °F 30.1 °F 23.0 °F 61% 29.86 in - Variable 5.8 mph - N/A   Unknown